| time (UTC) | temp F | wind direction | speed knots | gust knots | rain 1hr in | rain 24hr in | rain mn in | humidity % | barometer mb |
| 20260506203018 | 63 | 114 | 0.0 | 0.0 | 0.00 | 0.00 | 0.00 | 71 | 1010.4 |
| 20260506201517 | 63 | 114 | 0.0 | 0.0 | 0.00 | 0.00 | 0.00 | 71 | 1010.4 |
| 20260506200017 | 63 | 114 | 0.0 | 0.0 | 0.00 | 0.00 | 0.00 | 70 | 1010.3 |
| 20260506194526 | 63 | 114 | 0.0 | 0.0 | 0.00 | 0.00 | 0.00 | 69 | 1010.0 |
| 20260506193015 | 64 | 116 | 0.0 | 0.0 | 0.00 | 0.00 | 0.00 | 69 | 1009.8 |
| 20260506191515 | 64 | 144 | 0.0 | 0.0 | 0.00 | 0.00 | 0.00 | 67 | 1009.9 |
| 20260506190014 | 64 | 149 | 0.0 | 0.0 | 0.00 | 0.00 | 0.00 | 66 | 1009.8 |
| 20260506184513 | 65 | 170 | 0.0 | 0.0 | 0.00 | 0.00 | 0.00 | 66 | 1009.6 |
| 20260506183012 | 65 | 162 | 0.0 | 2.6 | 0.00 | 0.00 | 0.00 | 66 | 1009.4 |
| 20260506181512 | 65 | 109 | 0.0 | 0.9 | 0.00 | 0.00 | 0.00 | 66 | 1009.2 |
| 20260506180012 | 65 | 129 | 0.0 | 0.0 | 0.00 | 0.00 | 0.00 | 65 | 1009.0 |
| 20260506174511 | 65 | 162 | 0.0 | 2.6 | 0.00 | 0.00 | 0.00 | 64 | 1009.1 |
| 20260506173011 | 66 | 135 | 0.0 | 0.9 | 0.00 | 0.00 | 0.00 | 63 | 1009.0 |
| 20260506171508 | 66 | 132 | 0.0 | 0.9 | 0.00 | 0.00 | 0.00 | 64 | 1009.2 |
| 20260506170007 | 67 | 156 | 0.0 | 3.5 | 0.00 | 0.00 | 0.00 | 63 | 1009.3 |
| 20260506164512 | 67 | 110 | 0.0 | 3.5 | 0.00 | 0.00 | 0.00 | 62 | 1009.4 |
| 20260506163006 | 67 | 167 | 0.0 | 4.3 | 0.00 | 0.00 | 0.00 | 61 | 1009.5 |
| 20260506161505 | 67 | 152 | 0.0 | 6.1 | 0.00 | 0.00 | 0.00 | 61 | 1009.3 |
| 20260506160004 | 67 | 124 | 0.0 | 4.3 | 0.00 | 0.00 | 0.00 | 62 | 1009.3 |
| 20260506154510 | 66 | 122 | 0.0 | 4.3 | 0.00 | 0.00 | 0.00 | 63 | 1009.3 |
| 20260506153001 | 66 | 141 | 0.0 | 7.0 | 0.00 | 0.00 | 0.00 | 65 | 1009.2 |
| 20260506151601 | 66 | 141 | 0.0 | 6.1 | 0.00 | 0.00 | 0.00 | 62 | 1009.3 |
| 20260506150105 | 66 | 121 | 0.0 | 5.2 | 0.00 | 0.00 | 0.00 | 63 | 1009.5 |
| 20260506144600 | 66 | 139 | 0.0 | 3.5 | 0.00 | 0.00 | 0.00 | 62 | 1009.6 |
| 20260506143058 | 66 | 131 | 0.0 | 2.6 | 0.00 | 0.00 | 0.00 | 65 | 1009.5 |
| 20260506141557 | 66 | 114 | 0.0 | 1.7 | 0.00 | 0.00 | 0.00 | 64 | 1009.8 |
| 20260506140057 | 66 | 139 | 0.9 | 10.4 | 0.00 | 0.00 | 0.00 | 64 | 1009.8 |
| 20260506134555 | 66 | 129 | 0.0 | 3.5 | 0.00 | 0.00 | 0.00 | 64 | 1009.9 |
| 20260506133104 | 67 | 162 | 0.0 | 5.2 | 0.00 | 0.00 | 0.00 | 63 | 1009.8 |
| 20260506131602 | 68 | 165 | 0.0 | 7.0 | 0.00 | 0.00 | 0.00 | 63 | 1009.9 |
| 20260506130056 | 68 | 191 | 0.0 | 10.4 | 0.00 | 0.00 | 0.00 | 63 | 1010.0 |
| 20260506124558 | 68 | 152 | 0.0 | 7.0 | 0.00 | 0.00 | 0.00 | 59 | 1010.0 |
| 20260506123052 | 67 | 188 | 0.0 | 10.4 | 0.00 | 0.00 | 0.00 | 59 | 1010.0 |
| 20260506121551 | 68 | 134 | 0.0 | 13.0 | 0.00 | 0.00 | 0.00 | 60 | 1010.0 |
| 20260506120051 | 68 | 149 | 0.0 | 11.3 | 0.00 | 0.00 | 0.00 | 61 | 1010.1 |
| 20260506114550 | 68 | 245 | 0.9 | 11.3 | 0.00 | 0.00 | 0.00 | 60 | 1010.2 |
| 20260506113151 | 69 | 226 | 0.9 | 0.0 | 0.00 | 0.00 | 0.00 | 57 | 1010.2 |
| 20260506111548 | 69 | 187 | 1.7 | 11.3 | 0.00 | 0.00 | 0.00 | 56 | 1010.1 |
| 20260506110048 | 69 | 113 | 0.0 | 10.4 | 0.00 | 0.00 | 0.00 | 56 | 1010.1 |
| 20260506104549 | 68 | 200 | 0.0 | 12.2 | 0.00 | 0.00 | 0.00 | 55 | 1010.2 |
| 20260506103045 | 69 | 240 | 0.9 | 6.1 | 0.00 | 0.00 | 0.00 | 56 | 1010.3 |
| 20260506101544 | 68 | 155 | 2.6 | 8.7 | 0.00 | 0.00 | 0.00 | 58 | 1010.3 |
| 20260506100044 | 68 | 213 | 0.0 | 1.7 | 0.00 | 0.00 | 0.00 | 58 | 1010.4 |
| 20260506094551 | 68 | 165 | 1.7 | 8.7 | 0.00 | 0.00 | 0.00 | 60 | 1010.3 |
| 20260506093041 | 69 | 186 | 0.0 | 4.3 | 0.00 | 0.00 | 0.00 | 59 | 1010.3 |
| 20260506091538 | 68 | 174 | 0.0 | 0.0 | 0.00 | 0.00 | 0.00 | 59 | 1010.2 |
| 20260506090036 | 67 | 293 | 0.0 | 0.0 | 0.00 | 0.00 | 0.00 | 60 | 1010.2 |
| 20260506084534 | 67 | 222 | 0.0 | 2.6 | 0.00 | 0.00 | 0.00 | 60 | 1010.3 |
| 20260506083031 | 66 | 258 | 0.0 | 0.0 | 0.00 | 0.00 | 0.00 | 62 | 1010.3 |
| 20260506081533 | 65 | 277 | 0.0 | 0.0 | 0.00 | 0.00 | 0.00 | 64 | 1010.3 |
| 20260506073021 | 63 | 352 | 0.0 | 0.0 | 0.00 | 0.00 | 0.00 | 69 | 1010.4 |
| 20260506071523 | 62 | 352 | 0.0 | 0.0 | 0.00 | 0.00 | 0.00 | 74 | 1010.4 |
| 20260506061517 | 55 | 352 | 0.0 | 0.0 | 0.00 | 0.00 | 0.00 | 83 | 1010.1 |
| 20260506044503 | 0 | 0.0 | 0.0 | 0.00 | 0.00 | 0.00 | 1009.8 | ||
| 20260506043059 | 0 | 0.0 | 0.0 | 0.00 | 0.00 | 0.00 | 1009.7 | ||
| 20260506041558 | 53 | 171 | 0.0 | 0.0 | 0.00 | 0.00 | 0.00 | 84 | 1009.6 |
| 20260506040057 | 53 | 170 | 0.0 | 0.0 | 0.00 | 0.00 | 0.00 | 84 | 1009.5 |
| 20260506034556 | 54 | 173 | 0.0 | 0.0 | 0.00 | 0.00 | 0.00 | 83 | 1009.5 |
| 20260506033055 | 55 | 173 | 0.0 | 0.0 | 0.00 | 0.00 | 0.00 | 83 | 1009.6 |
| 20260506031556 | 55 | 172 | 0.0 | 0.0 | 0.00 | 0.00 | 0.00 | 81 | 1009.8 |
| 20260506030048 | 56 | 158 | 0.0 | 0.0 | 0.00 | 0.00 | 0.00 | 80 | 1009.8 |
| 20260506024556 | 57 | 150 | 0.0 | 0.0 | 0.00 | 0.00 | 0.00 | 79 | 1009.8 |
| 20260506023045 | 56 | 19 | 0.0 | 0.0 | 0.00 | 0.00 | 0.00 | 80 | 1009.6 |
| 20260506021544 | 56 | 19 | 0.0 | 0.0 | 0.00 | 0.00 | 0.00 | 79 | 1009.5 |
| 20260506020044 | 57 | 19 | 0.0 | 0.0 | 0.00 | 0.00 | 0.00 | 78 | 1009.4 |
| 20260506014543 | 57 | 1 | 0.0 | 0.0 | 0.00 | 0.00 | 0.00 | 79 | 1009.4 |
| 20260506013039 | 57 | 327 | 0.0 | 0.0 | 0.00 | 0.00 | 0.00 | 80 | 1009.4 |
| 20260506011538 | 57 | 330 | 0.0 | 0.0 | 0.00 | 0.00 | 0.00 | 80 | 1009.5 |
| 20260506010035 | 58 | 338 | 0.0 | 0.0 | 0.00 | 0.00 | 0.00 | 78 | 1009.7 |
| 20260506004532 | 58 | 331 | 0.0 | 0.0 | 0.00 | 0.00 | 0.00 | 74 | 1009.9 |
| 20260506003035 | 59 | 322 | 0.0 | 0.0 | 0.00 | 0.00 | 0.00 | 72 | 1010.0 |
| 20260506001534 | 59 | 82 | 0.0 | 0.0 | 0.00 | 0.00 | 0.00 | 70 | 1010.1 |
| 20260506000026 | 59 | 103 | 0.0 | 0.0 | 0.00 | 0.00 | 0.00 | 69 | 1010.1 |
| 20260505234529 | 60 | 104 | 0.0 | 0.0 | 0.00 | 0.00 | 0.00 | 68 | 1010.1 |
| 20260505233021 | 60 | 104 | 0.0 | 0.0 | 0.00 | 0.00 | 0.00 | 67 | 1010.0 |
| 20260505231519 | 61 | 103 | 0.0 | 0.0 | 0.00 | 0.00 | 0.00 | 65 | 1009.9 |
| 20260505230033 | 61 | 103 | 0.0 | 0.0 | 0.00 | 0.00 | 0.00 | 65 | 1009.8 |
| 20260505224514 | 62 | 103 | 0.0 | 0.0 | 0.00 | 0.00 | 0.00 | 65 | 1009.8 |
| 20260505223012 | 62 | 111 | 0.0 | 0.0 | 0.00 | 0.00 | 0.00 | 64 | 1009.8 |
| 20260505221511 | 62 | 83 | 0.0 | 0.0 | 0.00 | 0.00 | 0.00 | 65 | 1009.8 |
| 20260505220009 | 62 | 90 | 0.0 | 0.0 | 0.00 | 0.00 | 0.00 | 66 | 1009.8 |
| 20260505214508 | 62 | 91 | 0.0 | 0.9 | 0.00 | 0.00 | 0.00 | 66 | 1009.8 |
| 20260505213010 | 63 | 81 | 0.0 | 3.5 | 0.00 | 0.00 | 0.00 | 67 | 1009.8 |
| 20260505211513 | 63 | 121 | 0.9 | 7.0 | 0.00 | 0.00 | 0.00 | 67 | 1009.9 |
| 20260505210012 | 63 | 74 | 0.9 | 8.7 | 0.00 | 0.00 | 0.00 | 66 | 1009.8 |
| 20260505204506 | 63 | 104 | 0.0 | 2.6 | 0.00 | 0.00 | 0.00 | 66 | 1009.6 |